Theta_e
325 324 320 319 316 317 314 312 315 316 318 318 319 321 319 318 317 315 312 313 313 314 314 315 315 314 313 313 313 312 312 311 311 310 310 310 310 310 310 310 310 310 310
325 323 321 319 317 316 313 312 315 317 318 318 318 318 316 315 313 313 311 310 310 311 313 315 316 314 313 312 311 310 309 309 309 309 309 308 308 309 309 309 309 309 310
325 323 320 318 316 314 312 311 315 317 316 316 315 315 313 312 310 309 308 306 307 308 309 310 312 313 313 311 310 309 308 308 307 308 307 308 308 308 308 307 308 308 308
325 322 319 316 314 312 310 314 316 314 313 312 311 310 310 309 308 307 306 304 304 304 305 305 307 308 310 311 310 309 308 307 306 306 306 307 306 307 307 307 307 308 308
322 320 318 315 313 311 311 315 315 313 311 309 307 307 306 306 305 305 305 305 303 301 301 302 303 304 306 308 308 307 307 306 306 306 305 305 305 305 305 305 305 306 307
320 318 315 311 310 311 312 314 314 312 309 308 306 305 304 303 303 303 303 303 303 302 302 300 301 301 301 304 306 306 306 305 304 304 304 304 304 303 304 304 305 306 306
316 312 311 311 311 312 313 314 312 311 308 306 305 304 303 303 302 302 301 302 302 302 302 301 299 298 300 299 301 302 303 303 302 302 301 302 302 303 303 303 303 304 304
312 310 311 312 311 311 313 312 312 310 308 305 304 303 302 302 302 302 301 301 301 301 300 299 298 297 296 295 295 297 299 299 299 299 299 299 300 300 301 301 301 301 303
311 311 313 312 310 310 313 312 311 309 306 305 304 307 304 304 302 301 302 301 300 299 298 297 296 296 295 294 292 293 295 296 297 298 298 298 298 298 299 298 298 299 299
312 312 312 312 310 311 313 312 311 308 306 306 304 307 310 303 302 301 301 301 300 299 298 297 296 296 295 293 291 291 292 294 295 296 296 296 297 297 297 297 297 297 297
313 312 311 312 310 310 312 312 311 309 306 306 306 307 305 303 302 301 300 300 300 299 298 297 296 296 294 292 289 290 291 292 292 293 294 294 295 295 295 296 295 295 295
313 312 311 311 310 310 311 312 311 308 306 307 309 308 308 307 304 302 300 299 298 298 298 297 296 295 293 291 289 289 289 290 290 291 291 292 292 293 293 293 293 293 294
313 311 310 310 309 308 311 311 309 309 308 308 308 309 308 308 306 304 301 299 297 295 296 296 296 295 292 290 288 287 288 288 288 289 289 289 290 290 290 291 291 291 291
312 311 309 309 308 307 309 310 310 309 308 309 308 308 308 307 307 302 301 300 296 294 293 294 295 294 292 291 288 287 286 286 286 287 287 287 287 287 287 288 288 289 289
311 310 308 308 307 306 308 309 309 309 309 308 308 308 307 307 305 305 302 300 297 297 294 293 293 293 292 290 289 287 286 285 285 285 286 285 285 285 285 286 286 286 286
309 308 307 307 307 306 307 309 309 308 308 308 308 306 305 304 304 304 302 300 299 298 296 292 293 292 291 291 290 288 286 284 284 284 284 284 283 283 283 283 284 284 285
308 307 306 305 305 305 306 307 306 306 306 306 306 305 302 302 302 304 302 302 301 298 296 293 292 292 291 290 289 289 287 285 283 283 283 282 282 281 281 282 282 283 283
306 305 304 303 303 302 302 302 303 303 303 302 302 302 301 301 302 303 303 303 301 300 293 291 291 290 289 288 290 288 287 284 284 282 282 282 281 281 280 281 281 281 282
303 303 302 300 300 300 300 300 300 300 300 300 300 300 300 301 301 302 301 299 298 295 292 291 290 290 289 290 288 286 286 285 284 282 282 281 281 281 280 280 279 280 280
302 300 299 298 298 297 298 298 298 298 298 298 298 299 299 300 300 299 298 298 295 293 291 290 290 289 289 289 288 288 287 284 283 283 283 282 282 281 280 279 278 278 278
297 298 296 295 295 295 295 296 296 296 296 297 297 297 297 297 297 297 297 294 293 292 291 290 289 287 287 288 289 288 287 286 284 284 284 283 283 282 281 280 278 276 276
294 293 292 293 293 293 294 295 295 295 295 294 292 293 293 295 294 294 294 293 292 292 290 288 288 287 285 287 286 287 286 285 285 284 282 284 282 283 281 281 279 278 277
291 291 291 292 292 292 293 293 293 292 291 290 291 291 290 291 291 291 291 292 292 291 290 289 289 287 286 286 285 286 286 286 286 283 282 284 283 282 282 281 280 279 278
290 291 290 290 291 290 292 292 292 290 289 289 289 287 287 287 288 289 289 289 289 290 290 290 288 285 285 285 284 285 285 285 284 281 281 283 284 283 282 282 281 279 278
290 290 290 290 290 290 291 290 289 289 289 288 287 286 285 285 286 287 288 287 286 285 287 286 285 285 284 283 283 283 283 283 283 281 281 280 283 282 282 282 281 280 279
290 290 290 289 289 289 289 290 290 290 289 288 286 285 285 284 285 285 284 284 282 282 284 282 282 281 281 280 281 282 281 282 284 281 280 280 281 280 280 282 281 280 279
Wind_Speed
26 22 24 23 20 20 19 18 15 19 19 27 26 14 23 23 21 21 21 17 17 18 16 15 16 17 17 19 19 19 20 19 18 19 19 19 19 19 19 18 17 16 15
30 26 22 27 25 22 21 21 21 20 18 18 27 24 21 17 14 20 18 16 16 19 18 18 18 16 16 17 17 17 17 18 18 18 18 18 18 19 20 19 19 18 18
31 32 29 26 27 25 23 20 21 18 20 19 20 24 26 24 17 16 12 10 17 18 18 19 19 18 16 16 16 17 17 17 17 18 17 17 18 18 18 17 19 19 19
30 30 29 27 27 25 25 24 24 25 23 21 21 22 22 23 21 18 14 8 11 16 19 17 19 18 17 17 16 15 16 17 16 17 17 16 17 17 18 19 19 19 20
31 31 30 28 27 27 30 29 26 27 25 23 21 19 18 18 17 18 17 15 8 8 13 15 17 20 20 18 16 15 16 16 18 18 16 16 17 17 18 18 18 18 19
36 31 30 27 29 30 29 30 27 29 30 29 25 24 18 16 14 17 14 12 12 7 9 10 9 14 18 20 19 17 16 17 17 17 17 17 18 18 18 18 19 19 19
35 34 30 30 32 33 31 32 31 31 31 31 27 23 18 14 13 15 12 12 11 12 11 7 12 11 15 17 18 16 16 17 18 17 16 17 18 18 18 19 20 20 20
38 38 33 34 35 31 32 34 31 29 29 35 21 17 4 7 10 12 15 14 13 14 15 15 13 11 10 11 14 16 15 15 15 15 16 17 16 16 17 18 19 20 21
42 40 32 34 38 33 35 37 36 33 31 28 34 8 4 4 14 11 14 16 14 13 11 13 13 16 17 15 13 16 16 15 15 15 15 14 15 15 16 17 18 20 21
43 43 39 37 41 35 34 37 38 35 35 29 36 14 4 22 4 5 17 17 17 15 15 15 14 13 8 8 14 15 16 17 14 14 13 14 15 16 17 17 17 18 19
35 41 42 39 43 36 37 37 37 34 36 31 27 16 18 23 19 10 8 16 16 16 17 15 14 15 15 9 12 15 15 15 15 14 14 14 14 15 17 17 18 18 19
34 36 39 39 41 36 40 39 39 35 34 31 28 26 22 17 19 13 8 19 17 20 17 17 15 17 15 15 14 14 14 15 15 14 14 14 14 15 17 17 17 17 17
32 35 36 37 40 38 36 39 40 35 34 32 31 28 24 21 24 19 28 22 16 22 14 15 15 16 11 11 13 14 14 15 14 14 14 14 14 14 14 16 16 16 16
37 35 36 34 36 39 37 37 36 34 34 31 31 27 26 24 20 32 28 30 11 15 21 18 16 16 15 11 13 13 14 14 14 13 14 14 13 13 15 15 17 16 16
29 36 39 37 37 38 38 38 35 34 31 30 31 25 25 20 18 20 34 34 27 8 6 19 17 18 17 16 16 13 10 13 13 13 13 13 13 13 14 15 15 16 15
33 34 38 33 39 41 40 39 36 34 34 27 26 22 18 18 20 20 34 32 27 18 4 29 20 23 16 16 13 15 8 11 12 12 12 12 13 13 14 16 16 15 14
35 35 35 35 31 29 40 36 34 33 34 28 27 26 17 20 21 17 32 30 27 29 23 21 28 22 23 20 17 10 9 11 12 12 11 11 11 13 15 16 16 14 13
34 33 33 33 31 28 24 34 35 35 36 30 27 28 21 21 20 21 23 25 15 23 36 28 28 24 20 19 18 12 17 15 8 9 10 10 12 12 14 15 14 13 12
34 31 30 30 29 32 28 27 33 35 32 30 28 27 25 25 24 22 23 21 26 31 31 33 27 24 22 20 20 16 15 10 7 7 9 10 8 11 11 13 12 11 11
40 38 30 31 30 28 35 31 32 33 29 28 26 23 28 25 27 25 25 27 32 33 31 30 26 26 22 21 18 19 17 15 11 8 6 4 4 7 9 10 11 12 11
39 41 38 35 32 32 34 35 35 34 31 28 24 26 23 24 22 26 29 31 35 33 29 25 20 20 21 19 19 17 16 12 9 9 6 5 2 5 4 2 9 10 10
37 39 37 38 34 25 31 32 34 33 27 27 27 27 27 26 25 26 28 30 31 34 27 23 19 18 20 17 16 16 15 12 4 6 9 8 2 7 7 10 5 8 12
35 34 34 37 33 32 31 29 24 26 29 29 29 27 25 24 26 27 26 25 23 21 24 26 25 25 24 21 21 16 13 11 5 9 7 5 6 7 8 7 4 5 10
36 38 35 34 35 32 28 26 28 30 30 26 27 28 29 29 29 31 32 31 29 26 23 23 22 21 20 17 14 12 11 10 12 11 4 2 7 5 3 7 6 5 6
30 30 33 31 33 32 28 33 30 28 28 26 26 26 31 31 31 30 33 32 30 27 23 25 25 24 22 20 16 15 12 12 11 6 4 4 3 2 4 9 7 7 7
28 32 26 30 31 35 35 35 29 30 30 28 27 26 25 33 30 28 32 32 31 26 26 24 22 20 17 15 15 15 16 5 8 5 4 4 2 3 3 6 4 6 8
Wind_Direction
165 167 163 164 156 165 156 157 160 157 155 155 137 124 137 138 135 125 106 115 98 85 82 81 81 82 80 79 77 73 68 62 57 54 51 48 46 43 43 41 37 32 29
167 169 171 164 166 166 168 168 158 157 146 139 134 126 119 129 139 132 124 109 104 101 83 80 79 85 86 83 77 71 66 61 57 53 50 48 49 46 44 42 40 38 36
173 172 180 175 173 170 168 171 159 160 150 142 130 129 122 122 127 122 128 129 108 106 98 80 76 77 83 84 81 73 68 62 58 55 51 49 48 45 42 40 39 37 35
179 180 187 183 181 173 168 161 163 143 142 138 126 125 128 133 130 125 128 128 120 113 99 95 88 80 76 79 76 72 68 64 59 57 54 51 49 48 45 42 38 37 36
183 185 186 183 173 172 166 166 163 151 141 134 127 126 126 129 131 133 130 137 151 135 123 96 86 78 73 74 74 71 70 67 64 61 58 54 50 48 44 40 38 38 38
192 192 185 181 174 174 181 170 167 158 149 146 135 130 131 132 122 122 128 141 149 142 109 100 140 108 78 72 74 75 72 70 66 62 58 56 51 48 47 44 44 42 40
193 186 188 184 181 178 177 172 162 158 152 146 132 120 121 125 129 130 140 141 152 144 128 118 101 110 130 96 73 77 75 71 66 62 60 56 51 50 50 47 45 42 41
198 187 184 182 179 179 177 172 167 159 158 152 151 131 144 109 146 154 148 155 155 148 138 121 128 104 87 102 83 73 73 71 68 63 58 56 54 52 51 48 44 43 43
194 187 185 183 180 185 178 174 174 169 162 170 167 145 147 152 146 155 162 165 160 151 157 138 125 117 119 107 91 82 78 78 75 70 65 61 55 50 49 45 43 44 43
193 193 187 186 184 188 179 179 178 174 170 173 185 217 155 138 155 164 183 166 169 156 145 147 140 139 150 120 101 90 89 87 81 76 72 67 61 55 51 50 47 46 41
194 191 189 187 186 187 183 181 180 180 177 177 186 186 134 148 148 151 153 166 163 158 156 152 145 133 124 117 109 98 91 87 82 78 73 68 62 56 52 52 51 44 40
190 194 191 188 188 185 184 183 183 180 180 185 184 190 172 172 156 159 148 161 159 161 158 153 152 146 137 126 110 108 102 95 87 82 78 71 65 59 53 52 51 46 42
190 194 195 190 186 188 183 179 183 184 183 186 186 186 181 190 181 158 150 156 147 150 149 162 157 146 144 148 123 118 107 96 92 87 81 75 68 63 60 51 51 48 44
188 190 193 194 186 184 185 182 183 186 187 187 185 181 183 195 190 158 157 150 133 147 152 155 158 152 147 151 136 122 111 99 94 89 82 76 72 67 63 58 50 47 44
191 186 190 191 191 186 185 182 180 182 188 186 187 182 183 182 176 170 159 159 151 151 163 167 152 163 158 154 145 138 115 110 106 99 93 86 77 67 63 59 54 47 42
188 188 190 195 188 184 182 181 179 179 181 180 176 175 167 167 173 161 162 160 164 151 141 164 163 158 168 157 151 160 135 117 113 104 92 85 75 68 63 59 55 47 40
188 186 184 191 186 185 173 171 170 170 171 168 168 172 161 162 176 176 167 166 179 164 135 147 153 155 160 155 152 168 155 133 128 118 107 94 79 66 60 60 55 48 45
188 180 182 183 173 164 171 162 163 162 161 159 161 167 155 158 183 179 168 167 167 166 141 137 149 152 154 167 161 157 168 149 118 113 112 99 90 74 63 63 59 50 39
183 178 173 167 166 164 165 165 158 154 155 153 157 164 154 173 177 171 154 151 140 142 140 139 146 159 160 162 159 161 144 135 133 137 112 82 64 79 67 60 62 54 42
175 169 164 161 160 157 154 155 151 142 146 152 159 153 170 172 164 160 160 150 143 138 140 138 147 151 158 159 166 160 158 162 142 145 149 119 86 87 93 73 61 54 43
159 159 154 150 151 152 151 154 152 145 149 150 149 160 154 153 157 159 153 148 144 138 138 138 139 148 159 160 166 164 169 168 160 147 157 140 140 163 121 65 6 29 28
147 147 143 143 144 141 158 153 153 138 144 145 147 149 142 149 154 150 149 150 153 145 140 143 146 154 168 165 175 159 153 153 155 199 195 178 226 206 236 301 315 13 14
145 143 141 146 149 156 167 160 148 149 160 159 163 149 146 155 161 153 145 134 139 152 161 161 159 161 161 171 156 161 173 183 159 155 155 195 209 226 249 270 278 346 8
145 148 152 152 150 155 159 151 160 165 159 162 162 152 157 154 157 150 138 134 128 128 141 154 158 145 149 147 150 162 158 138 135 138 154 48 183 175 215 271 278 292 334
143 145 150 148 149 152 158 156 151 153 152 153 152 161 158 157 155 150 149 137 127 118 137 144 146 151 157 159 164 151 153 171 163 154 145 159 137 205 265 268 272 274 295
139 143 135 146 153 155 157 156 160 150 145 148 153 151 157 149 152 153 152 146 131 136 142 143 144 149 157 151 150 150 157 181 134 129 159 149 98 36 333 218 247 289 281